Time,TemperatureF,DewpointF,PressureIn,WindDirection,WindDirectionDegrees,WindSpeedMPH,WindSpeedGustMPH,Humidity,HourlyPrecipIn,Conditions,Clouds,dailyrainin,SoftwareType,DateUTC
2013-04-11 00:00:00,54.4,45.2,29.64,SW,225,0.0,1.1,71,0.00,,,0.00,WUHU216HW,2013-04-11 07:00:00,
2013-04-11 00:05:00,54.4,45.2,29.64,West,270,0.0,0.0,71,0.00,,,0.00,WUHU216HW,2013-04-11 07:05:00,
2013-04-11 00:10:00,54.4,44.8,29.64,WNW,293,0.0,0.0,70,0.00,,,0.00,WUHU216HW,2013-04-11 07:10:00,
2013-04-11 00:15:00,54.0,44.1,29.64,NNE,23,0.4,0.4,69,0.00,,,0.00,WUHU216HW,2013-04-11 07:15:00,
2013-04-11 00:20:00,53.8,43.1,29.64,NNE,23,0.0,1.1,67,0.00,,,0.00,WUHU216HW,2013-04-11 07:20:00,
2013-04-11 00:25:00,53.8,43.5,29.64,NE,45,0.0,1.1,68,0.00,,,0.00,WUHU216HW,2013-04-11 07:25:00,
2013-04-11 00:30:00,53.8,43.5,29.64,SSE,158,0.9,0.9,68,0.00,,,0.00,WUHU216HW,2013-04-11 07:30:00,
2013-04-11 00:35:00,53.6,43.3,29.64,NW,315,0.4,1.1,68,0.00,,,0.00,WUHU216HW,2013-04-11 07:35:00,
2013-04-11 00:40:00,53.6,43.8,29.63,East,90,0.0,1.1,69,0.00,,,0.00,WUHU216HW,2013-04-11 07:40:00,
2013-04-11 00:45:00,53.3,43.4,29.63,North,0,1.8,1.8,69,0.00,,,0.00,WUHU216HW,2013-04-11 07:45:00,
2013-04-11 00:50:00,53.1,42.4,29.63,East,90,1.1,2.5,67,0.00,,,0.00,WUHU216HW,2013-04-11 07:50:00,
2013-04-11 00:55:00,53.1,42.9,29.64,East,90,0.4,2.5,68,0.00,,,0.00,WUHU216HW,2013-04-11 07:55:00,
2013-04-11 01:00:00,52.9,42.7,29.64,North,0,0.4,2.0,68,0.00,,,0.00,WUHU216HW,2013-04-11 08:00:00,
2013-04-11 01:05:00,52.9,42.7,29.64,SE,135,0.4,1.1,68,0.00,,,0.00,WUHU216HW,2013-04-11 08:05:00,
2013-04-11 01:10:00,52.9,42.7,29.64,North,0,0.7,1.3,68,0.00,,,0.00,WUHU216HW,2013-04-11 08:10:00,
2013-04-11 01:15:00,52.7,42.5,29.64,SW,225,0.0,1.3,68,0.00,,,0.00,WUHU216HW,2013-04-11 08:15:00,
2013-04-11 01:20:00,52.6,42.8,29.63,NNW,338,1.8,2.5,69,0.00,,,0.00,WUHU216HW,2013-04-11 08:20:00,
2013-04-11 01:25:00,52.6,42.8,29.63,NE,45,0.0,2.5,69,0.00,,,0.00,WUHU216HW,2013-04-11 08:25:00,
2013-04-11 01:30:00,52.4,42.6,29.63,NE,45,1.1,1.8,69,0.00,,,0.00,WUHU216HW,2013-04-11 08:30:00,
2013-04-11 01:35:00,52.2,42.4,29.63,NNE,23,1.3,1.8,69,0.00,,,0.00,WUHU216HW,2013-04-11 08:35:00,
2013-04-11 01:40:00,52.2,42.4,29.63,SE,135,1.1,1.8,69,0.00,,,0.00,WUHU216HW,2013-04-11 08:40:00,
2013-04-11 01:45:00,52.0,42.7,29.63,NNE,23,3.1,3.1,70,0.00,,,0.00,WUHU216HW,2013-04-11 08:45:00,
2013-04-11 01:50:00,52.0,42.7,29.63,NNE,23,1.1,3.6,70,0.00,,,0.00,WUHU216HW,2013-04-11 08:50:00,
2013-04-11 01:55:00,52.0,42.2,29.63,North,0,0.0,3.6,69,0.00,,,0.00,WUHU216HW,2013-04-11 08:55:00,
2013-04-11 02:00:00,52.0,42.7,29.63,ESE,113,0.9,1.8,70,0.00,,,0.00,WUHU216HW,2013-04-11 09:00:00,
2013-04-11 02:05:00,52.0,42.7,29.62,North,0,0.9,1.8,70,0.00,,,0.00,WUHU216HW,2013-04-11 09:05:00,
2013-04-11 02:10:00,51.8,42.5,29.63,NE,45,1.1,1.8,70,0.00,,,0.00,WUHU216HW,2013-04-11 09:10:00,
2013-04-11 02:15:00,51.8,42.9,29.62,ESE,113,1.8,2.0,71,0.00,,,0.00,WUHU216HW,2013-04-11 09:15:00,
2013-04-11 02:20:00,51.8,43.2,29.62,ENE,68,0.4,2.0,72,0.00,,,0.00,WUHU216HW,2013-04-11 09:20:00,
2013-04-11 02:25:00,51.8,42.9,29.62,WNW,293,0.0,1.8,71,0.00,,,0.00,WUHU216HW,2013-04-11 09:25:00,
2013-04-11 02:30:00,51.8,42.9,29.62,East,90,1.1,1.1,71,0.00,,,0.00,WUHU216HW,2013-04-11 09:30:00,
2013-04-11 02:35:00,51.7,43.0,29.62,SE,135,0.0,1.3,72,0.00,,,0.00,WUHU216HW,2013-04-11 09:35:00,
2013-04-11 02:40:00,51.5,42.9,29.61,NNE,23,0.0,1.3,72,0.00,,,0.00,WUHU216HW,2013-04-11 09:40:00,
2013-04-11 02:45:00,51.3,42.7,29.61,ENE,68,0.0,1.3,72,0.00,,,0.00,WUHU216HW,2013-04-11 09:45:00,
2013-04-11 02:50:00,51.3,42.7,29.61,ENE,68,0.0,0.9,72,0.00,,,0.00,WUHU216HW,2013-04-11 09:50:00,
2013-04-11 02:55:00,50.9,42.3,29.61,East,90,0.0,1.1,72,0.00,,,0.00,WUHU216HW,2013-04-11 09:55:00,
2013-04-11 03:00:00,50.9,42.3,29.61,North,0,0.0,1.1,72,0.00,,,0.00,WUHU216HW,2013-04-11 10:00:00,
2013-04-11 03:05:00,50.8,42.1,29.61,NE,45,1.8,1.8,72,0.00,,,0.00,WUHU216HW,2013-04-11 10:05:00,
2013-04-11 03:10:00,50.8,42.1,29.61,NNE,23,0.9,2.2,72,0.00,,,0.00,WUHU216HW,2013-04-11 10:10:00,
2013-04-11 03:15:00,50.9,42.0,29.61,NNE,23,0.9,2.2,71,0.00,,,0.00,WUHU216HW,2013-04-11 10:15:00,
2013-04-11 03:20:00,50.9,42.0,29.61,NNE,23,0.4,0.9,71,0.00,,,0.00,WUHU216HW,2013-04-11 10:20:00,
2013-04-11 03:25:00,50.9,41.6,29.61,East,90,0.0,0.9,70,0.00,,,0.00,WUHU216HW,2013-04-11 10:25:00,
2013-04-11 03:30:00,50.9,41.6,29.61,NE,45,0.0,0.9,70,0.00,,,0.00,WUHU216HW,2013-04-11 10:30:00,
2013-04-11 03:35:00,50.9,41.6,29.61,West,270,0.4,0.9,70,0.00,,,0.00,WUHU216HW,2013-04-11 10:35:00,
2013-04-11 03:40:00,50.8,41.4,29.61,NNW,338,0.0,0.9,70,0.00,,,0.00,WUHU216HW,2013-04-11 10:40:00,
2013-04-11 03:45:00,50.4,41.0,29.61,NNE,23,1.1,1.1,70,0.00,,,0.00,WUHU216HW,2013-04-11 10:45:00,
2013-04-11 03:50:00,50.4,41.0,29.61,ENE,68,0.9,1.3,70,0.00,,,0.00,WUHU216HW,2013-04-11 10:50:00,
2013-04-11 03:55:00,50.2,40.9,29.61,NNE,23,0.4,1.3,70,0.00,,,0.00,WUHU216HW,2013-04-11 10:55:00,
2013-04-11 04:00:00,50.0,40.7,29.61,NNE,23,1.6,1.6,70,0.00,,,0.00,WUHU216HW,2013-04-11 11:00:00,
2013-04-11 04:05:00,50.0,40.3,29.61,NE,45,1.3,2.5,69,0.00,,,0.00,WUHU216HW,2013-04-11 11:05:00,
2013-04-11 04:10:00,50.0,40.3,29.60,NE,45,1.1,2.5,69,0.00,,,0.00,WUHU216HW,2013-04-11 11:10:00,
2013-04-11 04:15:00,50.0,40.3,29.60,ENE,68,0.7,1.6,69,0.00,,,0.00,WUHU216HW,2013-04-11 11:15:00,
2013-04-11 04:20:00,50.0,39.9,29.60,NE,45,0.9,3.8,68,0.00,,,0.00,WUHU216HW,2013-04-11 11:20:00,
2013-04-11 04:25:00,50.0,39.9,29.60,ENE,68,0.7,3.8,68,0.00,,,0.00,WUHU216HW,2013-04-11 11:25:00,
2013-04-11 04:30:00,50.0,39.9,29.60,NNE,23,1.8,2.2,68,0.00,,,0.00,WUHU216HW,2013-04-11 11:30:00,
2013-04-11 04:35:00,50.0,39.9,29.60,NE,45,0.4,2.2,68,0.00,,,0.00,WUHU216HW,2013-04-11 11:35:00,
2013-04-11 04:40:00,50.0,39.9,29.60,NE,45,0.0,1.8,68,0.00,,,0.00,WUHU216HW,2013-04-11 11:40:00,
2013-04-11 04:45:00,50.0,39.9,29.61,NNW,338,0.4,1.1,68,0.00,,,0.00,WUHU216HW,2013-04-11 11:45:00,
2013-04-11 04:50:00,49.9,39.7,29.61,NNW,338,0.0,1.1,68,0.00,,,0.00,WUHU216HW,2013-04-11 11:50:00,
2013-04-11 04:55:00,49.7,40.0,29.61,NNW,338,0.0,1.1,69,0.00,,,0.00,WUHU216HW,2013-04-11 11:55:00,
2013-04-11 05:00:00,49.5,39.8,29.61,North,0,0.0,1.1,69,0.00,,,0.00,WUHU216HW,2013-04-11 12:00:00,
2013-04-11 05:05:00,49.3,40.3,29.60,NE,45,1.1,1.1,71,0.00,,,0.00,WUHU216HW,2013-04-11 12:05:00,
2013-04-11 05:10:00,49.3,40.7,29.60,East,90,0.4,1.8,72,0.00,,,0.00,WUHU216HW,2013-04-11 12:10:00,
2013-04-11 05:15:00,49.1,40.5,29.60,NNE,23,0.7,2.2,72,0.00,,,0.00,WUHU216HW,2013-04-11 12:15:00,
2013-04-11 05:20:00,49.1,40.8,29.60,ENE,68,0.9,2.2,73,0.00,,,0.00,WUHU216HW,2013-04-11 12:20:00,
2013-04-11 05:25:00,49.3,40.7,29.60,North,0,1.3,2.2,72,0.00,,,0.00,WUHU216HW,2013-04-11 12:25:00,
2013-04-11 05:30:00,49.3,41.0,29.60,NNE,23,1.3,2.2,73,0.00,,,0.00,WUHU216HW,2013-04-11 12:30:00,
2013-04-11 05:35:00,49.3,41.0,29.59,NNE,23,0.2,1.6,73,0.00,,,0.00,WUHU216HW,2013-04-11 12:35:00,
2013-04-11 05:40:00,49.3,41.0,29.60,NNE,23,0.0,1.6,73,0.00,,,0.00,WUHU216HW,2013-04-11 12:40:00,
2013-04-11 05:45:00,49.3,41.3,29.60,North,0,0.2,1.1,74,0.00,,,0.00,WUHU216HW,2013-04-11 12:45:00,
2013-04-11 05:50:00,49.3,41.7,29.60,North,0,0.0,1.1,75,0.00,,,0.00,WUHU216HW,2013-04-11 12:50:00,
2013-04-11 05:55:00,49.3,42.4,29.60,NE,45,0.7,0.9,77,0.00,,,0.00,WUHU216HW,2013-04-11 12:55:00,
2013-04-11 06:00:00,49.3,42.4,29.60,ENE,68,0.0,0.9,77,0.00,,,0.00,WUHU216HW,2013-04-11 13:00:00,
2013-04-11 06:05:00,49.3,42.4,29.60,ENE,68,0.0,0.7,77,0.00,,,0.00,WUHU216HW,2013-04-11 13:05:00,
2013-04-11 06:10:00,49.3,42.0,29.60,NE,45,0.0,0.9,76,0.00,,,0.00,WUHU216HW,2013-04-11 13:10:00,
2013-04-11 06:15:00,49.3,42.0,29.59,NE,45,1.6,1.6,76,0.00,,,0.00,WUHU216HW,2013-04-11 13:15:00,
2013-04-11 06:20:00,49.3,42.0,29.59,NE,45,0.0,1.6,76,0.00,,,0.00,WUHU216HW,2013-04-11 13:20:00,
2013-04-11 06:25:00,49.3,42.7,29.59,NE,45,0.0,1.6,78,0.00,,,0.00,WUHU216HW,2013-04-11 13:25:00,
2013-04-11 06:30:00,49.3,42.7,29.59,NE,45,0.4,1.1,78,0.00,,,0.00,WUHU216HW,2013-04-11 13:30:00,
2013-04-11 06:35:00,49.3,43.4,29.59,ENE,68,0.4,1.6,80,0.00,,,0.00,WUHU216HW,2013-04-11 13:35:00,
2013-04-11 06:40:00,49.3,43.0,29.60,NNE,23,1.3,1.8,79,0.00,,,0.00,WUHU216HW,2013-04-11 13:40:00,
2013-04-11 06:45:00,49.5,43.6,29.60,ENE,68,0.4,1.8,80,0.00,,,0.00,WUHU216HW,2013-04-11 13:45:00,
2013-04-11 06:50:00,49.7,43.0,29.60,North,0,0.9,1.8,78,0.00,,,0.00,WUHU216HW,2013-04-11 13:50:00,
2013-04-11 06:55:00,49.9,43.2,29.60,North,0,0.0,1.8,78,0.00,,,0.00,WUHU216HW,2013-04-11 13:55:00,
2013-04-11 07:00:00,50.0,43.4,29.60,North,0,0.0,1.8,78,0.00,,,0.00,WUHU216HW,2013-04-11 14:00:00,
2013-04-11 07:05:00,50.4,43.7,29.61,North,0,0.0,0.0,78,0.00,,,0.00,WUHU216HW,2013-04-11 14:05:00,
2013-04-11 07:10:00,50.6,43.9,29.60,North,0,0.0,0.0,78,0.00,,,0.00,WUHU216HW,2013-04-11 14:10:00,
2013-04-11 07:15:00,50.8,44.1,29.60,North,0,0.0,0.0,78,0.00,,,0.00,WUHU216HW,2013-04-11 14:15:00,
2013-04-11 07:20:00,50.9,44.0,29.60,North,0,0.0,0.4,77,0.00,,,0.00,WUHU216HW,2013-04-11 14:20:00,
2013-04-11 07:25:00,51.3,44.6,29.60,North,0,0.0,0.4,78,0.00,,,0.00,WUHU216HW,2013-04-11 14:25:00,
2013-04-11 07:30:00,52.2,45.5,29.60,East,90,0.0,0.7,78,0.00,,,0.00,WUHU216HW,2013-04-11 14:30:00,
2013-04-11 07:35:00,54.9,48.2,29.60,East,90,0.4,0.7,78,0.00,,,0.00,WUHU216HW,2013-04-11 14:35:00,
2013-04-11 07:40:00,58.0,49.7,29.60,ENE,68,0.0,0.4,74,0.00,,,0.00,WUHU216HW,2013-04-11 14:40:00,
2013-04-11 07:45:00,60.8,51.8,29.61,NNW,338,0.0,0.7,72,0.00,,,0.00,WUHU216HW,2013-04-11 14:45:00,
2013-04-11 07:50:00,62.5,52.9,29.60,NNW,338,0.0,0.7,71,0.00,,,0.00,WUHU216HW,2013-04-11 14:50:00,
2013-04-11 07:55:00,62.3,52.4,29.61,NNW,338,0.9,1.3,70,0.00,,,0.00,WUHU216HW,2013-04-11 14:55:00,
2013-04-11 08:00:00,61.6,51.4,29.61,WSW,248,0.4,1.3,69,0.00,,,0.00,WUHU216HW,2013-04-11 15:00:00,
2013-04-11 08:05:00,61.2,51.0,29.61,WSW,248,0.9,1.8,69,0.00,,,0.00,WUHU216HW,2013-04-11 15:05:00,
2013-04-11 08:10:00,61.2,51.0,29.61,SW,225,1.1,1.8,69,0.00,,,0.00,WUHU216HW,2013-04-11 15:10:00,
2013-04-11 08:15:00,61.6,51.4,29.61,SSW,203,1.8,4.0,69,0.00,,,0.00,WUHU216HW,2013-04-11 15:15:00,
2013-04-11 08:20:00,61.7,51.5,29.61,SW,225,2.7,4.0,69,0.00,,,0.00,WUHU216HW,2013-04-11 15:20:00,
2013-04-11 08:25:00,61.6,51.4,29.61,SW,225,3.4,3.8,69,0.00,,,0.00,WUHU216HW,2013-04-11 15:25:00,
2013-04-11 08:30:00,61.7,51.5,29.61,SW,225,2.2,4.0,69,0.00,,,0.00,WUHU216HW,2013-04-11 15:30:00,
2013-04-11 08:35:00,62.1,52.3,29.61,SW,225,2.0,4.0,70,0.00,,,0.00,WUHU216HW,2013-04-11 15:35:00,
2013-04-11 08:40:00,62.3,52.4,29.60,SSW,203,1.8,4.3,70,0.00,,,0.00,WUHU216HW,2013-04-11 15:40:00,
2013-04-11 08:45:00,62.6,52.3,29.60,SW,225,1.6,4.3,69,0.00,,,0.00,WUHU216HW,2013-04-11 15:45:00,
2013-04-11 08:50:00,62.8,52.1,29.61,North,0,1.1,4.0,68,0.00,,,0.00,WUHU216HW,2013-04-11 15:50:00,
2013-04-11 08:55:00,62.5,51.8,29.61,SW,225,2.5,2.5,68,0.00,,,0.00,WUHU216HW,2013-04-11 15:55:00,
2013-04-11 09:00:00,62.6,51.9,29.60,WSW,248,2.5,3.6,68,0.00,,,0.00,WUHU216HW,2013-04-11 16:00:00,
2013-04-11 09:05:00,63.0,51.8,29.60,West,270,1.1,3.6,67,0.00,,,0.00,WUHU216HW,2013-04-11 16:05:00,
2013-04-11 09:10:00,62.8,51.3,29.60,WSW,248,0.4,3.4,66,0.00,,,0.00,WUHU216HW,2013-04-11 16:10:00,
2013-04-11 09:15:00,62.5,51.3,29.60,East,90,0.4,2.7,67,0.00,,,0.00,WUHU216HW,2013-04-11 16:15:00,
2013-04-11 09:20:00,62.6,51.5,29.61,West,270,1.8,3.4,67,0.00,,,0.00,WUHU216HW,2013-04-11 16:20:00,
2013-04-11 09:25:00,62.3,51.2,29.60,West,270,2.7,3.4,67,0.00,,,0.00,WUHU216HW,2013-04-11 16:25:00,
2013-04-11 09:30:00,62.3,51.6,29.60,WNW,293,1.3,3.6,68,0.00,,,0.00,WUHU216HW,2013-04-11 16:30:00,
2013-04-11 09:35:00,62.5,51.8,29.60,East,90,2.2,3.6,68,0.00,,,0.00,WUHU216HW,2013-04-11 16:35:00,
2013-04-11 09:40:00,62.6,51.9,29.60,WSW,248,1.3,3.4,68,0.00,,,0.00,WUHU216HW,2013-04-11 16:40:00,
2013-04-11 09:45:00,62.5,51.8,29.60,SW,225,1.1,3.4,68,0.00,,,0.00,WUHU216HW,2013-04-11 16:45:00,
2013-04-11 09:50:00,62.5,52.2,29.60,SW,225,3.4,3.4,69,0.00,,,0.00,WUHU216HW,2013-04-11 16:50:00,
2013-04-11 09:55:00,62.5,52.2,29.60,West,270,3.4,4.7,69,0.00,,,0.00,WUHU216HW,2013-04-11 16:55:00,
2013-04-11 10:00:00,62.6,51.9,29.60,NW,315,1.8,4.7,68,0.00,,,0.00,WUHU216HW,2013-04-11 17:00:00,
2013-04-11 10:05:00,63.0,51.8,29.59,SSW,203,1.3,4.7,67,0.00,,,0.00,WUHU216HW,2013-04-11 17:05:00,
2013-04-11 10:10:00,63.5,51.6,29.59,SSW,203,1.8,4.7,65,0.00,,,0.00,WUHU216HW,2013-04-11 17:10:00,
2013-04-11 10:15:00,63.5,51.6,29.59,NW,315,2.7,4.0,65,0.00,,,0.00,WUHU216HW,2013-04-11 17:15:00,
2013-04-11 10:20:00,63.7,50.9,29.59,WSW,248,1.8,4.5,63,0.00,,,0.00,WUHU216HW,2013-04-11 17:20:00,
2013-04-11 10:25:00,63.2,50.3,29.59,WNW,293,2.5,4.5,63,0.00,,,0.00,WUHU216HW,2013-04-11 17:25:00,
2013-04-11 10:30:00,63.2,51.2,29.59,NNW,338,1.1,4.0,65,0.00,,,0.00,WUHU216HW,2013-04-11 17:30:00,
2013-04-11 10:35:00,63.7,51.3,29.59,West,270,3.4,3.8,64,0.00,,,0.00,WUHU216HW,2013-04-11 17:35:00,
2013-04-11 10:40:00,63.9,51.0,29.59,WSW,248,3.4,4.9,63,0.00,,,0.00,WUHU216HW,2013-04-11 17:40:00,
2013-04-11 10:45:00,64.1,51.6,29.59,West,270,2.2,4.9,64,0.00,,,0.00,WUHU216HW,2013-04-11 17:45:00,
2013-04-11 10:50:00,63.7,51.3,29.59,WSW,248,3.8,4.7,64,0.00,,,0.00,WUHU216HW,2013-04-11 17:50:00,
2013-04-11 10:55:00,63.5,51.6,29.59,WNW,293,1.8,5.4,65,0.00,,,0.00,WUHU216HW,2013-04-11 17:55:00,
2013-04-11 11:00:00,63.7,51.7,29.59,NNW,338,1.8,5.4,65,0.00,,,0.00,WUHU216HW,2013-04-11 18:00:00,
2013-04-11 11:05:00,63.2,51.6,29.59,WSW,248,4.3,4.9,66,0.00,,,0.00,WUHU216HW,2013-04-11 18:05:00,
2013-04-11 11:10:00,63.5,51.9,29.59,WSW,248,5.1,5.1,66,0.00,,,0.00,WUHU216HW,2013-04-11 18:10:00,
2013-04-11 11:15:00,63.4,51.8,29.59,West,270,1.6,5.8,66,0.00,,,0.00,WUHU216HW,2013-04-11 18:15:00,
2013-04-11 11:20:00,62.8,52.1,29.59,SW,225,4.7,5.8,68,0.00,,,0.00,WUHU216HW,2013-04-11 18:20:00,
2013-04-11 11:25:00,62.8,52.9,29.59,NW,315,3.1,6.0,70,0.00,,,0.00,WUHU216HW,2013-04-11 18:25:00,
2013-04-11 11:30:00,62.5,52.6,29.58,WSW,248,6.3,6.3,70,0.00,,,0.00,WUHU216HW,2013-04-11 18:30:00,
2013-04-11 11:35:00,62.5,52.9,29.59,WNW,293,3.8,6.5,71,0.00,,,0.00,WUHU216HW,2013-04-11 18:35:00,
2013-04-11 11:40:00,62.3,53.1,29.59,WNW,293,3.4,6.5,72,0.00,,,0.00,WUHU216HW,2013-04-11 18:40:00,
2013-04-11 11:45:00,61.9,53.2,29.59,WSW,248,1.6,5.6,73,0.00,,,0.00,WUHU216HW,2013-04-11 18:45:00,
2013-04-11 11:50:00,62.3,53.5,29.59,SW,225,3.4,5.6,73,0.00,,,0.00,WUHU216HW,2013-04-11 18:50:00,
2013-04-11 11:55:00,62.5,52.9,29.58,SW,225,5.4,5.4,71,0.00,,,0.00,WUHU216HW,2013-04-11 18:55:00,
2013-04-11 12:00:00,62.5,52.9,29.58,WSW,248,3.6,5.8,71,0.00,,,0.00,WUHU216HW,2013-04-11 19:00:00,
2013-04-11 12:05:00,63.2,53.3,29.58,WSW,248,2.5,5.8,70,0.00,,,0.00,WUHU216HW,2013-04-11 19:05:00,
2013-04-11 12:10:00,63.7,52.6,29.58,NW,315,0.9,4.7,67,0.00,,,0.00,WUHU216HW,2013-04-11 19:10:00,
2013-04-11 12:15:00,63.7,53.4,29.58,SW,225,2.0,4.7,69,0.00,,,0.00,WUHU216HW,2013-04-11 19:15:00,
2013-04-11 12:20:00,63.7,53.8,29.57,WSW,248,1.8,4.3,70,0.00,,,0.00,WUHU216HW,2013-04-11 19:20:00,
2013-04-11 12:25:00,62.6,52.7,29.57,West,270,4.0,5.6,70,0.00,,,0.00,WUHU216HW,2013-04-11 19:25:00,
2013-04-11 12:30:00,62.3,52.0,29.57,SW,225,2.7,6.3,69,0.00,,,0.00,WUHU216HW,2013-04-11 19:30:00,
2013-04-11 12:35:00,62.6,51.9,29.56,West,270,2.7,6.3,68,0.00,,,0.00,WUHU216HW,2013-04-11 19:35:00,
2013-04-11 12:40:00,62.5,51.8,29.56,WSW,248,4.5,5.4,68,0.00,,,0.00,WUHU216HW,2013-04-11 19:40:00,
2013-04-11 12:45:00,62.8,51.7,29.55,WSW,248,2.7,5.4,67,0.00,,,0.00,WUHU216HW,2013-04-11 19:45:00,
2013-04-11 12:50:00,63.2,51.2,29.55,West,270,3.4,5.4,65,0.00,,,0.00,WUHU216HW,2013-04-11 19:50:00,
2013-04-11 12:55:00,63.0,50.2,29.55,SW,225,1.1,5.4,63,0.00,,,0.00,WUHU216HW,2013-04-11 19:55:00,
2013-04-11 13:00:00,62.8,50.4,29.55,WNW,293,0.9,6.9,64,0.00,,,0.00,WUHU216HW,2013-04-11 20:00:00,
2013-04-11 13:05:00,63.4,50.5,29.55,WSW,248,3.1,6.9,63,0.00,,,0.00,WUHU216HW,2013-04-11 20:05:00,
2013-04-11 13:10:00,63.4,50.5,29.55,NW,315,2.2,6.5,63,0.00,,,0.00,WUHU216HW,2013-04-11 20:10:00,
2013-04-11 13:15:00,63.5,51.6,29.55,NW,315,2.2,8.5,65,0.00,,,0.00,WUHU216HW,2013-04-11 20:15:00,
2013-04-11 13:20:00,62.6,51.5,29.55,WSW,248,4.3,8.5,67,0.00,,,0.00,WUHU216HW,2013-04-11 20:20:00,
2013-04-11 13:25:00,62.3,51.2,29.54,West,270,3.8,6.7,67,0.00,,,0.00,WUHU216HW,2013-04-11 20:25:00,
2013-04-11 13:30:00,61.9,52.1,29.54,SW,225,3.4,6.3,70,0.00,,,0.00,WUHU216HW,2013-04-11 20:30:00,
2013-04-11 13:35:00,62.1,51.4,29.54,WSW,248,3.4,6.3,68,0.00,,,0.00,WUHU216HW,2013-04-11 20:35:00,
2013-04-11 13:40:00,62.1,52.3,29.53,NW,315,3.1,6.3,70,0.00,,,0.00,WUHU216HW,2013-04-11 20:40:00,
2013-04-11 13:45:00,62.1,52.3,29.53,WNW,293,3.6,6.3,70,0.00,,,0.00,WUHU216HW,2013-04-11 20:45:00,
2013-04-11 13:50:00,61.9,51.7,29.53,NW,315,2.2,4.9,69,0.00,,,0.00,WUHU216HW,2013-04-11 20:50:00,
2013-04-11 13:55:00,61.7,51.5,29.53,WSW,248,3.1,5.1,69,0.00,,,0.00,WUHU216HW,2013-04-11 20:55:00,
2013-04-11 14:00:00,61.7,51.5,29.53,WNW,293,2.7,5.1,69,0.00,,,0.00,WUHU216HW,2013-04-11 21:00:00,
2013-04-11 14:05:00,61.9,51.7,29.52,West,270,1.8,4.9,69,0.00,,,0.00,WUHU216HW,2013-04-11 21:05:00,
2013-04-11 14:10:00,61.9,51.7,29.52,West,270,4.9,5.8,69,0.00,,,0.00,WUHU216HW,2013-04-11 21:10:00,
2013-04-11 14:15:00,62.6,52.7,29.52,WNW,293,3.8,5.8,70,0.00,,,0.00,WUHU216HW,2013-04-11 21:15:00,
2013-04-11 14:20:00,62.5,52.6,29.51,WSW,248,4.7,5.4,70,0.00,,,0.00,WUHU216HW,2013-04-11 21:20:00,
2013-04-11 14:26:00,62.1,52.3,29.51,WNW,293,2.7,5.8,70,0.00,,,0.00,WUHU216HW,2013-04-11 21:26:00,
2013-04-11 14:31:00,62.1,52.7,29.51,WSW,248,2.5,7.6,71,0.00,,,0.00,WUHU216HW,2013-04-11 21:31:00,
2013-04-11 14:36:00,61.9,52.8,29.51,WNW,293,2.5,7.6,72,0.00,,,0.00,WUHU216HW,2013-04-11 21:36:00,
2013-04-11 14:41:00,61.7,51.9,29.51,SW,225,4.7,6.9,70,0.00,,,0.00,WUHU216HW,2013-04-11 21:41:00,
2013-04-11 14:47:00,61.9,52.1,29.51,WSW,248,3.1,9.2,70,0.00,,,0.00,WUHU216HW,2013-04-11 21:47:00,
2013-04-11 14:52:00,61.9,51.7,29.50,WNW,293,1.8,9.2,69,0.00,,,0.00,WUHU216HW,2013-04-11 21:52:00,
2013-04-11 14:57:00,62.1,52.3,29.50,NW,315,2.2,6.9,70,0.00,,,0.00,WUHU216HW,2013-04-11 21:57:00,
2013-04-11 15:02:00,62.5,52.9,29.50,SW,225,4.7,4.9,71,0.00,,,0.00,WUHU216HW,2013-04-11 22:02:00,
2013-04-11 15:07:00,62.6,52.7,29.50,WNW,293,1.8,8.7,70,0.00,,,0.00,WUHU216HW,2013-04-11 22:07:00,
2013-04-11 15:12:00,62.8,52.9,29.50,SW,225,6.0,8.7,70,0.00,,,0.00,WUHU216HW,2013-04-11 22:12:00,
2013-04-11 15:17:00,62.8,52.9,29.50,WSW,248,4.5,7.6,70,0.00,,,0.00,WUHU216HW,2013-04-11 22:17:00,
2013-04-11 15:22:00,62.1,53.0,29.50,West,270,3.6,6.3,72,0.00,,,0.00,WUHU216HW,2013-04-11 22:22:00,
2013-04-11 15:27:00,61.9,52.5,29.50,SW,225,2.5,5.8,71,0.00,,,0.00,WUHU216HW,2013-04-11 22:27:00,
2013-04-11 15:32:00,61.6,52.5,29.49,WNW,293,2.5,5.8,72,0.00,,,0.00,WUHU216HW,2013-04-11 22:32:00,
2013-04-11 15:37:00,61.0,52.4,29.49,WSW,248,6.0,6.0,73,0.00,,,0.00,WUHU216HW,2013-04-11 22:37:00,
2013-04-11 15:42:00,60.8,52.2,29.49,SW,225,3.1,6.0,73,0.00,,,0.00,WUHU216HW,2013-04-11 22:42:00,
2013-04-11 15:47:00,60.8,52.2,29.49,West,270,1.3,6.0,73,0.00,,,0.00,WUHU216HW,2013-04-11 22:47:00,
2013-04-11 15:52:00,60.8,51.8,29.49,WNW,293,1.8,5.4,72,0.00,,,0.00,WUHU216HW,2013-04-11 22:52:00,
2013-04-11 15:57:00,60.8,51.8,29.48,WSW,248,2.5,4.9,72,0.00,,,0.00,WUHU216HW,2013-04-11 22:57:00,
2013-04-11 16:02:00,61.0,52.0,29.48,West,270,4.7,5.4,72,0.00,,,0.00,WUHU216HW,2013-04-11 23:02:00,
2013-04-11 16:07:00,61.4,52.3,29.47,WSW,248,2.7,7.4,72,0.00,,,0.00,WUHU216HW,2013-04-11 23:07:00,
2013-04-11 16:12:00,61.9,52.5,29.47,WNW,293,3.6,7.4,71,0.00,,,0.00,WUHU216HW,2013-04-11 23:12:00,
2013-04-11 16:17:00,61.9,52.5,29.48,SSW,203,2.5,4.3,71,0.00,,,0.00,WUHU216HW,2013-04-11 23:17:00,
2013-04-11 16:22:00,61.6,52.1,29.47,NNW,338,3.1,5.4,71,0.00,,,0.00,WUHU216HW,2013-04-11 23:22:00,
2013-04-11 16:27:00,61.6,52.1,29.47,West,270,2.7,5.4,71,0.00,,,0.00,WUHU216HW,2013-04-11 23:27:00,
2013-04-11 16:32:00,61.6,52.1,29.47,WNW,293,1.6,4.7,71,0.00,,,0.00,WUHU216HW,2013-04-11 23:32:00,
2013-04-11 16:37:00,62.1,53.0,29.47,SW,225,4.3,6.0,72,0.00,,,0.00,WUHU216HW,2013-04-11 23:37:00,
2013-04-11 16:42:00,61.9,52.1,29.47,WSW,248,2.2,7.4,70,0.00,,,0.00,WUHU216HW,2013-04-11 23:42:00,
2013-04-11 16:47:00,61.7,52.3,29.47,WSW,248,4.7,7.4,71,0.00,,,0.00,WUHU216HW,2013-04-11 23:47:00,
2013-04-11 16:52:00,62.3,52.7,29.46,West,270,4.7,5.1,71,0.00,,,0.00,WUHU216HW,2013-04-11 23:52:00,
2013-04-11 16:57:00,62.5,52.9,29.46,NW,315,0.9,5.8,71,0.00,,,0.00,WUHU216HW,2013-04-11 23:57:00,
2013-04-11 17:02:00,62.6,52.7,29.45,WSW,248,3.1,5.8,70,0.00,,,0.00,WUHU216HW,2013-04-12 00:02:00,
2013-04-11 17:07:00,62.8,52.9,29.45,SW,225,3.1,4.3,70,0.00,,,0.00,WUHU216HW,2013-04-12 00:07:00,
2013-04-11 17:12:00,63.7,53.8,29.46,SSW,203,2.5,6.3,70,0.00,,,0.00,WUHU216HW,2013-04-12 00:12:00,
2013-04-11 17:17:00,64.6,53.4,29.45,WSW,248,2.9,6.3,67,0.00,,,0.00,WUHU216HW,2013-04-12 00:17:00,
2013-04-11 17:22:00,65.0,53.7,29.45,West,270,2.5,4.0,67,0.00,,,0.00,WUHU216HW,2013-04-12 00:22:00,
2013-04-11 17:27:00,64.6,53.0,29.45,WNW,293,2.9,4.0,66,0.00,,,0.00,WUHU216HW,2013-04-12 00:27:00,
2013-04-11 17:32:00,63.7,52.6,29.45,WSW,248,1.6,4.0,67,0.00,,,0.00,WUHU216HW,2013-04-12 00:32:00,
2013-04-11 17:37:00,63.2,52.8,29.45,WSW,248,4.0,5.8,69,0.00,,,0.00,WUHU216HW,2013-04-12 00:37:00,
2013-04-11 17:42:00,62.6,52.7,29.45,WSW,248,2.0,5.8,70,0.00,,,0.00,WUHU216HW,2013-04-12 00:42:00,
2013-04-11 17:47:00,62.3,52.4,29.45,West,270,1.8,4.7,70,0.00,,,0.00,WUHU216HW,2013-04-12 00:47:00,
2013-04-11 17:52:00,61.4,51.6,29.45,SW,225,2.5,4.7,70,0.00,,,0.00,WUHU216HW,2013-04-12 00:52:00,
2013-04-11 17:57:00,60.7,51.7,29.45,WNW,293,1.8,4.3,72,0.00,,,0.00,WUHU216HW,2013-04-12 00:57:00,
2013-04-11 18:02:00,59.8,51.1,29.44,West,270,3.4,4.3,73,0.00,,,0.00,WUHU216HW,2013-04-12 01:02:00,
2013-04-11 18:07:00,59.2,51.3,29.45,West,270,1.1,3.6,75,0.00,,,0.00,WUHU216HW,2013-04-12 01:07:00,
2013-04-11 18:12:00,59.0,51.1,29.45,North,0,1.8,3.4,75,0.00,,,0.00,WUHU216HW,2013-04-12 01:12:00,
2013-04-11 18:17:00,59.2,51.3,29.44,SW,225,2.5,3.4,75,0.00,,,0.00,WUHU216HW,2013-04-12 01:17:00,
2013-04-11 18:22:00,59.2,51.7,29.44,West,270,1.1,3.8,76,0.00,,,0.00,WUHU216HW,2013-04-12 01:22:00,
2013-04-11 18:27:00,59.0,51.1,29.44,WSW,248,2.0,3.8,75,0.00,,,0.00,WUHU216HW,2013-04-12 01:27:00,
2013-04-11 18:32:00,59.0,51.5,29.44,WNW,293,1.1,3.8,76,0.00,,,0.00,WUHU216HW,2013-04-12 01:32:00,
2013-04-11 18:37:00,58.5,50.9,29.44,SW,225,1.1,3.8,76,0.00,,,0.00,WUHU216HW,2013-04-12 01:37:00,
2013-04-11 18:42:00,58.1,50.9,29.44,WSW,248,0.2,2.7,77,0.00,,,0.00,WUHU216HW,2013-04-12 01:42:00,
2013-04-11 18:47:00,58.0,50.4,29.44,West,270,1.3,3.4,76,0.00,,,0.00,WUHU216HW,2013-04-12 01:47:00,
2013-04-11 18:52:00,58.0,50.4,29.44,WSW,248,0.7,3.4,76,0.00,,,0.00,WUHU216HW,2013-04-12 01:52:00,
2013-04-11 18:58:00,58.0,50.8,29.44,West,270,0.7,2.5,77,0.00,,,0.00,WUHU216HW,2013-04-12 01:58:00,
2013-04-11 19:03:00,58.0,50.4,29.44,SW,225,0.7,2.5,76,0.00,,,0.00,WUHU216HW,2013-04-12 02:03:00,
2013-04-11 19:08:00,58.0,50.4,29.44,SSE,158,0.7,2.5,76,0.00,,,0.00,WUHU216HW,2013-04-12 02:08:00,
2013-04-11 19:13:00,58.0,50.4,29.44,West,270,0.7,2.2,76,0.00,,,0.00,WUHU216HW,2013-04-12 02:13:00,
2013-04-11 19:18:00,58.0,50.4,29.44,SSW,203,2.0,2.2,76,0.00,,,0.00,WUHU216HW,2013-04-12 02:18:00,
2013-04-11 19:23:00,58.0,50.4,29.44,WSW,248,0.0,3.8,76,0.00,,,0.00,WUHU216HW,2013-04-12 02:23:00,
2013-04-11 19:28:00,57.6,50.0,29.44,WSW,248,1.6,3.8,76,0.00,,,0.00,WUHU216HW,2013-04-12 02:28:00,
2013-04-11 19:33:00,57.6,50.0,29.44,SW,225,0.2,1.6,76,0.00,,,0.00,WUHU216HW,2013-04-12 02:33:00,
2013-04-11 19:38:00,57.4,49.9,29.44,South,180,0.7,1.8,76,0.00,,,0.00,WUHU216HW,2013-04-12 02:38:00,
2013-04-11 19:43:00,57.4,49.9,29.44,SSW,203,1.6,1.8,76,0.00,,,0.00,WUHU216HW,2013-04-12 02:43:00,
2013-04-11 19:48:00,57.2,49.7,29.44,SW,225,1.8,2.7,76,0.00,,,0.00,WUHU216HW,2013-04-12 02:48:00,
2013-04-11 19:53:00,57.2,50.0,29.44,SSW,203,1.1,2.7,77,0.00,,,0.00,WUHU216HW,2013-04-12 02:53:00,
2013-04-11 19:58:00,57.1,49.9,29.44,WNW,293,0.0,2.5,77,0.00,,,0.00,WUHU216HW,2013-04-12 02:58:00,
2013-04-11 20:03:00,56.9,49.7,29.44,ESE,113,0.9,2.2,77,0.00,,,0.00,WUHU216HW,2013-04-12 03:03:00,
2013-04-11 20:08:00,56.7,49.5,29.44,SE,135,1.6,1.6,77,0.00,,,0.00,WUHU216HW,2013-04-12 03:08:00,
2013-04-11 20:13:00,56.7,49.9,29.44,SE,135,1.1,2.2,78,0.00,,,0.00,WUHU216HW,2013-04-12 03:13:00,
2013-04-11 20:18:00,56.5,50.0,29.44,ESE,113,1.1,2.2,79,0.00,,,0.00,WUHU216HW,2013-04-12 03:18:00,
2013-04-11 20:23:00,56.3,49.9,29.44,ESE,113,2.2,2.2,79,0.00,,,0.00,WUHU216HW,2013-04-12 03:23:00,
2013-04-11 20:28:00,56.2,49.7,29.45,ESE,113,1.1,2.7,79,0.00,,,0.00,WUHU216HW,2013-04-12 03:28:00,
2013-04-11 20:33:00,56.3,49.9,29.45,ESE,113,0.9,2.7,79,0.00,,,0.00,WUHU216HW,2013-04-12 03:33:00,
2013-04-11 20:38:00,56.2,49.7,29.45,SE,135,2.2,2.5,79,0.00,,,0.00,WUHU216HW,2013-04-12 03:38:00,
2013-04-11 20:43:00,56.2,49.7,29.46,SE,135,1.8,2.5,79,0.00,,,0.00,WUHU216HW,2013-04-12 03:43:00,
2013-04-11 20:48:00,56.2,50.0,29.46,ESE,113,1.3,2.5,80,0.00,,,0.00,WUHU216HW,2013-04-12 03:48:00,
2013-04-11 20:53:00,56.0,49.9,29.46,ESE,113,4.0,4.0,80,0.00,,,0.00,WUHU216HW,2013-04-12 03:53:00,
2013-04-11 20:58:00,56.0,49.9,29.46,SE,135,1.1,4.0,80,0.00,,,0.00,WUHU216HW,2013-04-12 03:58:00,
2013-04-11 21:00:00,56.0,49.9,29.46,SSW,203,0.4,4.0,80,0.00,,,0.00,WUHU216HW,2013-04-12 04:00:00,
2013-04-11 21:05:00,56.0,50.2,29.46,SE,135,1.8,2.5,81,0.00,,,0.00,WUHU216HW,2013-04-12 04:05:00,
2013-04-11 21:10:00,55.8,50.1,29.46,East,90,0.4,2.5,81,0.00,,,0.00,WUHU216HW,2013-04-12 04:10:00,
2013-04-11 21:15:00,55.8,50.1,29.47,SE,135,2.2,2.2,81,0.00,,,0.00,WUHU216HW,2013-04-12 04:15:00,
2013-04-11 21:20:00,55.8,50.3,29.46,ESE,113,1.8,2.9,82,0.00,,,0.00,WUHU216HW,2013-04-12 04:20:00,
2013-04-11 21:25:00,55.8,50.3,29.47,SE,135,1.1,2.9,82,0.00,,,0.00,WUHU216HW,2013-04-12 04:25:00,
2013-04-11 21:30:00,55.8,50.1,29.47,SW,225,0.2,2.5,81,0.00,,,0.00,WUHU216HW,2013-04-12 04:30:00,
2013-04-11 21:35:00,55.8,50.1,29.46,SSW,203,0.0,1.8,81,0.00,,,0.00,WUHU216HW,2013-04-12 04:35:00,
2013-04-11 21:40:00,55.8,50.1,29.47,ESE,113,1.1,1.1,81,0.00,,,0.00,WUHU216HW,2013-04-12 04:40:00,
2013-04-11 21:45:00,55.6,49.9,29.47,SE,135,1.6,1.6,81,0.00,,,0.00,WUHU216HW,2013-04-12 04:45:00,
2013-04-11 21:50:00,55.6,49.9,29.48,ENE,68,0.4,1.8,81,0.00,,,0.00,WUHU216HW,2013-04-12 04:50:00,
2013-04-11 21:55:00,55.6,50.1,29.48,East,90,0.4,1.8,82,0.00,,,0.00,WUHU216HW,2013-04-12 04:55:00,
2013-04-11 22:00:00,55.6,49.9,29.47,ESE,113,0.0,1.1,81,0.00,,,0.00,WUHU216HW,2013-04-12 05:00:00,
2013-04-11 22:05:00,55.4,49.7,29.48,East,90,0.0,1.1,81,0.00,,,0.00,WUHU216HW,2013-04-12 05:05:00,
2013-04-11 22:10:00,55.4,49.3,29.48,East,90,0.0,1.1,80,0.00,,,0.00,WUHU216HW,2013-04-12 05:10:00,
2013-04-11 22:15:00,55.4,49.3,29.48,NE,45,0.2,0.7,80,0.00,,,0.00,WUHU216HW,2013-04-12 05:15:00,
2013-04-11 22:20:00,55.3,49.1,29.48,ENE,68,1.6,1.6,80,0.00,,,0.00,WUHU216HW,2013-04-12 05:20:00,
2013-04-11 22:25:00,55.1,49.3,29.48,East,90,0.7,1.6,81,0.00,,,0.00,WUHU216HW,2013-04-12 05:25:00,
2013-04-11 22:30:00,55.1,49.3,29.48,NE,45,0.0,1.6,81,0.00,,,0.00,WUHU216HW,2013-04-12 05:30:00,
2013-04-11 22:35:00,54.9,49.5,29.48,East,90,0.9,1.6,82,0.00,,,0.00,WUHU216HW,2013-04-12 05:35:00,
2013-04-11 22:40:00,54.9,49.5,29.48,ENE,68,1.1,1.8,82,0.00,,,0.00,WUHU216HW,2013-04-12 05:40:00,
2013-04-11 22:45:00,54.9,49.5,29.48,East,90,1.6,1.8,82,0.00,,,0.00,WUHU216HW,2013-04-12 05:45:00,
2013-04-11 22:50:00,54.9,49.5,29.48,East,90,1.1,1.8,82,0.00,,,0.00,WUHU216HW,2013-04-12 05:50:00,
2013-04-11 22:55:00,54.9,49.5,29.48,ENE,68,1.3,2.0,82,0.00,,,0.00,WUHU216HW,2013-04-12 05:55:00,
2013-04-11 23:00:00,54.9,49.5,29.48,ESE,113,1.1,2.0,82,0.00,,,0.00,WUHU216HW,2013-04-12 06:00:00,
2013-04-11 23:05:00,54.7,49.3,29.48,ENE,68,1.1,2.2,82,0.00,,,0.00,WUHU216HW,2013-04-12 06:05:00,
2013-04-11 23:10:00,54.7,49.0,29.47,ENE,68,2.2,2.2,81,0.00,,,0.00,WUHU216HW,2013-04-12 06:10:00,
2013-04-11 23:15:00,54.7,48.7,29.47,ENE,68,1.6,2.7,80,0.00,,,0.00,WUHU216HW,2013-04-12 06:15:00,
2013-04-11 23:20:00,54.5,48.5,29.47,NE,45,1.1,2.7,80,0.00,,,0.00,WUHU216HW,2013-04-12 06:20:00,
2013-04-11 23:25:00,54.7,48.7,29.47,ESE,113,1.6,2.5,80,0.00,,,0.00,WUHU216HW,2013-04-12 06:25:00,
2013-04-11 23:30:00,54.7,48.7,29.47,NE,45,0.7,1.8,80,0.00,,,0.00,WUHU216HW,2013-04-12 06:30:00,
2013-04-11 23:35:00,54.7,48.7,29.48,North,0,0.0,1.6,80,0.00,,,0.00,WUHU216HW,2013-04-12 06:35:00,
2013-04-11 23:40:00,54.5,48.5,29.47,NNE,23,0.4,1.1,80,0.00,,,0.00,WUHU216HW,2013-04-12 06:40:00,
2013-04-11 23:45:00,54.7,49.0,29.48,ESE,113,1.3,1.3,81,0.00,,,0.00,WUHU216HW,2013-04-12 06:45:00,
2013-04-11 23:50:00,54.7,49.0,29.47,ENE,68,0.0,1.6,81,0.00,,,0.00,WUHU216HW,2013-04-12 06:50:00,
2013-04-11 23:55:00,54.7,49.0,29.47,East,90,1.1,1.6,81,0.00,,,0.00,WUHU216HW,2013-04-12 06:55:00,